Year,Month,Day,Hour,Minute,Value (Times are PST for temperature in C)
2018,08,23,00,00,19.20
2018,08,23,00,01,19.40
2018,08,23,00,02,19.50
2018,08,23,00,03,19.50
2018,08,23,00,04,19.60
2018,08,23,00,05,19.70
2018,08,23,00,06,19.70
2018,08,23,00,07,19.70
2018,08,23,00,08,19.70
2018,08,23,00,09,19.80
2018,08,23,00,10,19.80
2018,08,23,00,11,19.80
2018,08,23,00,12,19.80
2018,08,23,00,13,19.80
2018,08,23,00,14,19.80
2018,08,23,00,15,19.80
2018,08,23,00,16,19.80
2018,08,23,00,17,19.70
2018,08,23,00,18,19.70
2018,08,23,00,19,19.70
2018,08,23,00,20,19.70
2018,08,23,00,21,19.70
2018,08,23,00,22,19.70
2018,08,23,00,23,19.70
2018,08,23,00,24,19.70
2018,08,23,00,25,19.60
2018,08,23,00,26,19.60
2018,08,23,00,27,19.60
2018,08,23,00,28,19.50
2018,08,23,00,29,19.50
2018,08,23,00,30,19.50
2018,08,23,00,31,19.40
2018,08,23,00,32,19.40
2018,08,23,00,33,19.40
2018,08,23,00,34,19.30
2018,08,23,00,35,19.30
2018,08,23,00,36,19.30
2018,08,23,00,37,19.30
2018,08,23,00,38,19.20
2018,08,23,00,39,19.20
2018,08,23,00,40,19.20
2018,08,23,00,41,19.20
2018,08,23,00,42,19.10
2018,08,23,00,43,19.10
2018,08,23,00,44,19.10
2018,08,23,00,45,19.10
2018,08,23,00,46,19.10
2018,08,23,00,47,19.10
2018,08,23,00,48,19.10
2018,08,23,00,49,19.10
2018,08,23,00,50,19.10
2018,08,23,00,51,19.00
2018,08,23,00,52,19.00
2018,08,23,00,53,19.00
2018,08,23,00,54,19.00
2018,08,23,00,55,19.00
2018,08,23,00,56,18.90
2018,08,23,00,57,18.90
2018,08,23,00,58,18.90
2018,08,23,00,59,18.90
2018,08,23,01,00,18.90
2018,08,23,01,01,18.90
2018,08,23,01,02,18.90
2018,08,23,01,03,18.90
2018,08,23,01,04,18.80
2018,08,23,01,05,18.80
2018,08,23,01,06,18.80
2018,08,23,01,07,18.80
2018,08,23,01,08,18.80
2018,08,23,01,09,18.80
2018,08,23,01,10,18.80
2018,08,23,01,11,18.70
2018,08,23,01,12,18.70
2018,08,23,01,13,18.70
2018,08,23,01,14,18.70
2018,08,23,01,15,18.70
2018,08,23,01,16,18.70
2018,08,23,01,17,18.70
2018,08,23,01,18,18.60
2018,08,23,01,19,18.60
2018,08,23,01,20,18.60
2018,08,23,01,21,18.60
2018,08,23,01,22,18.60
2018,08,23,01,23,18.60
2018,08,23,01,24,18.50
2018,08,23,01,25,18.50
2018,08,23,01,26,18.60
2018,08,23,01,27,18.60
2018,08,23,01,28,18.60
2018,08,23,01,29,18.60
2018,08,23,01,30,18.60
2018,08,23,01,31,18.60
2018,08,23,01,32,18.60
2018,08,23,01,33,18.60
2018,08,23,01,34,18.60
2018,08,23,01,35,18.60
2018,08,23,01,36,18.60
2018,08,23,01,37,18.60
2018,08,23,01,38,18.60
2018,08,23,01,39,18.60
2018,08,23,01,40,18.60
2018,08,23,01,41,18.60
2018,08,23,01,42,18.60
2018,08,23,01,43,18.60
2018,08,23,01,44,18.60
2018,08,23,01,45,18.60
2018,08,23,01,46,18.60
2018,08,23,01,47,18.70
2018,08,23,01,48,18.70
2018,08,23,01,49,18.70
2018,08,23,01,50,18.70
2018,08,23,01,51,18.80
2018,08,23,01,52,18.80
2018,08,23,01,53,18.80
2018,08,23,01,54,18.90
2018,08,23,01,55,18.90
2018,08,23,01,56,18.90
2018,08,23,01,57,18.90
2018,08,23,01,58,19.00
2018,08,23,01,59,19.00
2018,08,23,02,00,19.00
2018,08,23,02,01,19.00
2018,08,23,02,02,19.00
2018,08,23,02,03,19.00
2018,08,23,02,04,19.00
2018,08,23,02,05,19.00
2018,08,23,02,06,19.00
2018,08,23,02,07,19.00
2018,08,23,02,08,19.00
2018,08,23,02,09,19.00
2018,08,23,02,10,19.00
2018,08,23,02,11,19.00
2018,08,23,02,12,19.00
2018,08,23,02,13,19.00
2018,08,23,02,14,19.00
2018,08,23,02,15,19.00
2018,08,23,02,16,19.00
2018,08,23,02,17,18.90
2018,08,23,02,18,18.90
2018,08,23,02,19,18.90
2018,08,23,02,20,18.90
2018,08,23,02,21,18.90
2018,08,23,02,22,18.90
2018,08,23,02,23,18.90
2018,08,23,02,24,18.90
2018,08,23,02,25,18.90
2018,08,23,02,26,18.90
2018,08,23,02,27,18.90
2018,08,23,02,28,18.90
2018,08,23,02,29,18.90
2018,08,23,02,30,18.80
2018,08,23,02,31,18.80
2018,08,23,02,32,18.80
2018,08,23,02,33,18.80
2018,08,23,02,34,18.80
2018,08,23,02,35,18.80
2018,08,23,02,36,18.80
2018,08,23,02,37,18.80
2018,08,23,02,38,18.80
2018,08,23,02,39,18.80
2018,08,23,02,40,18.80
2018,08,23,02,41,18.80
2018,08,23,02,42,18.80
2018,08,23,02,43,18.80
2018,08,23,02,44,18.70
2018,08,23,02,45,18.70
2018,08,23,02,46,18.70
2018,08,23,02,47,18.70
2018,08,23,02,48,18.70
2018,08,23,02,49,18.70
2018,08,23,02,50,18.70
2018,08,23,02,51,18.60
2018,08,23,02,52,18.60
2018,08,23,02,53,18.60
2018,08,23,02,54,18.60
2018,08,23,02,55,18.60
2018,08,23,02,56,18.60
2018,08,23,02,57,18.60
2018,08,23,02,58,18.60
2018,08,23,02,59,18.60
2018,08,23,03,00,18.60
2018,08,23,03,01,18.60
2018,08,23,03,02,18.60
2018,08,23,03,03,18.60
2018,08,23,03,04,18.60
2018,08,23,03,05,18.60
2018,08,23,03,06,18.60
2018,08,23,03,07,18.50
2018,08,23,03,08,18.50
2018,08,23,03,09,18.50
2018,08,23,03,10,18.40
2018,08,23,03,11,18.40
2018,08,23,03,12,18.40
2018,08,23,03,13,18.40
2018,08,23,03,14,18.40
2018,08,23,03,15,18.40
2018,08,23,03,16,18.30
2018,08,23,03,17,18.30
2018,08,23,03,18,18.30
2018,08,23,03,19,18.30
2018,08,23,03,20,18.30
2018,08,23,03,21,18.30
2018,08,23,03,22,18.30
2018,08,23,03,23,18.30
2018,08,23,03,24,18.30
2018,08,23,03,25,18.30
2018,08,23,03,26,18.30
2018,08,23,03,27,18.30
2018,08,23,03,28,18.30
2018,08,23,03,29,18.30
2018,08,23,03,30,18.30
2018,08,23,03,31,18.30
2018,08,23,03,32,18.30
2018,08,23,03,33,18.30
2018,08,23,03,34,18.30
2018,08,23,03,35,18.30
2018,08,23,03,36,18.30
2018,08,23,03,37,18.30
2018,08,23,03,38,18.30
2018,08,23,03,39,18.30
2018,08,23,03,40,18.30
2018,08,23,03,41,18.20
2018,08,23,03,42,18.30
2018,08,23,03,43,18.30
2018,08,23,03,44,18.30
2018,08,23,03,45,18.30
2018,08,23,03,46,18.30
2018,08,23,03,47,18.30
2018,08,23,03,48,18.30
2018,08,23,03,49,18.30
2018,08,23,03,50,18.40
2018,08,23,03,51,18.40
2018,08,23,03,52,18.40
2018,08,23,03,53,18.40
2018,08,23,03,54,18.40
2018,08,23,03,55,18.40
2018,08,23,03,56,18.40
2018,08,23,03,57,18.40
2018,08,23,03,58,18.40
2018,08,23,03,59,18.40
2018,08,23,04,00,18.40
2018,08,23,04,01,18.40
2018,08,23,04,02,18.40
2018,08,23,04,03,18.30
2018,08,23,04,04,18.30
2018,08,23,04,05,18.30
2018,08,23,04,06,18.30
2018,08,23,04,07,18.30
2018,08,23,04,08,18.20
2018,08,23,04,09,18.20
2018,08,23,04,10,18.10
2018,08,23,04,11,18.00
2018,08,23,04,12,17.90
2018,08,23,04,13,17.80
2018,08,23,04,14,17.80
2018,08,23,04,15,17.70
2018,08,23,04,16,17.70
2018,08,23,04,17,17.60
2018,08,23,04,18,17.50
2018,08,23,04,19,17.50
2018,08,23,04,20,17.40
2018,08,23,04,21,17.40
2018,08,23,04,22,17.30
2018,08,23,04,23,17.30
2018,08,23,04,24,17.30
2018,08,23,04,25,17.30
2018,08,23,04,26,17.20
2018,08,23,04,27,17.20
2018,08,23,04,28,17.20
2018,08,23,04,29,17.20
2018,08,23,04,30,17.20
2018,08,23,04,31,17.20
2018,08,23,04,32,17.20
2018,08,23,04,33,17.10
2018,08,23,04,34,17.10
2018,08,23,04,35,17.10
2018,08,23,04,36,17.00
2018,08,23,04,37,17.00
2018,08,23,04,38,17.00
2018,08,23,04,39,16.90
2018,08,23,04,40,16.90
2018,08,23,04,41,16.80
2018,08,23,04,42,16.70
2018,08,23,04,43,16.70
2018,08,23,04,44,16.60
2018,08,23,04,45,16.50
2018,08,23,04,46,16.50
2018,08,23,04,47,16.40
2018,08,23,04,48,16.40
2018,08,23,04,49,16.40
2018,08,23,04,50,16.30
2018,08,23,04,51,16.30
2018,08,23,04,52,16.30
2018,08,23,04,53,16.20
2018,08,23,04,54,16.20
2018,08,23,04,55,16.10
2018,08,23,04,56,16.10
2018,08,23,04,57,16.00
2018,08,23,04,58,16.00
2018,08,23,04,59,15.90
2018,08,23,05,00,15.90
2018,08,23,05,01,15.80
2018,08,23,05,02,15.80
2018,08,23,05,03,15.70
2018,08,23,05,04,15.70
2018,08,23,05,05,15.60
2018,08,23,05,06,15.60
2018,08,23,05,07,15.50
2018,08,23,05,08,15.50
2018,08,23,05,09,15.40
2018,08,23,05,10,15.40
2018,08,23,05,11,15.40
2018,08,23,05,12,15.40
2018,08,23,05,13,15.30
2018,08,23,05,14,15.30
2018,08,23,05,15,15.30
2018,08,23,05,16,15.30
2018,08,23,05,17,15.30
2018,08,23,05,18,15.30
2018,08,23,05,19,15.30
2018,08,23,05,20,15.30
2018,08,23,05,21,15.30
2018,08,23,05,22,15.20
2018,08,23,05,23,15.20
2018,08,23,05,24,15.20
2018,08,23,05,25,15.20
2018,08,23,05,26,15.20
2018,08,23,05,27,15.20
2018,08,23,05,28,15.20
2018,08,23,05,29,15.20
2018,08,23,05,30,15.10
2018,08,23,05,31,15.10
2018,08,23,05,32,15.10
2018,08,23,05,33,15.10
2018,08,23,05,34,15.00
2018,08,23,05,35,15.00
2018,08,23,05,36,15.00
2018,08,23,05,37,14.90
2018,08,23,05,38,14.90
2018,08,23,05,39,14.90
2018,08,23,05,40,14.90
2018,08,23,05,41,14.90
2018,08,23,05,42,14.90
2018,08,23,05,43,14.90
2018,08,23,05,44,14.90
2018,08,23,05,45,14.90
2018,08,23,05,46,14.90
2018,08,23,05,47,14.90
2018,08,23,05,48,14.90
2018,08,23,05,49,14.90
2018,08,23,05,50,14.80
2018,08,23,05,51,14.80
2018,08,23,05,52,14.80
2018,08,23,05,53,14.70
2018,08,23,05,54,14.70
2018,08,23,05,55,14.70
2018,08,23,05,56,14.70
2018,08,23,05,57,14.70
2018,08,23,05,58,14.60
2018,08,23,05,59,14.60
2018,08,23,06,00,14.60
2018,08,23,06,01,14.60
2018,08,23,06,02,14.50
2018,08,23,06,03,14.50
2018,08,23,06,04,14.40
2018,08,23,06,05,14.40
2018,08,23,06,06,14.40
2018,08,23,06,07,14.40
2018,08,23,06,08,14.30
2018,08,23,06,09,14.30
2018,08,23,06,10,14.30
2018,08,23,06,11,14.30
2018,08,23,06,12,14.20
2018,08,23,06,13,14.20
2018,08,23,06,14,14.30
2018,08,23,06,15,14.30
2018,08,23,06,16,14.30
2018,08,23,06,17,14.30
2018,08,23,06,18,14.40
2018,08,23,06,19,14.30
2018,08,23,06,20,14.30
2018,08,23,06,21,14.30
2018,08,23,06,22,14.30
2018,08,23,06,23,14.20
2018,08,23,06,24,14.20
2018,08,23,06,25,14.20
2018,08,23,06,26,14.20
2018,08,23,06,27,14.30
2018,08,23,06,28,14.30
2018,08,23,06,29,14.30
2018,08,23,06,30,14.30
2018,08,23,06,31,14.30
2018,08,23,06,32,14.40
2018,08,23,06,33,14.40
2018,08,23,06,34,14.40
2018,08,23,06,35,14.40
2018,08,23,06,36,14.40
2018,08,23,06,37,14.40
2018,08,23,06,38,14.40
2018,08,23,06,39,14.40
2018,08,23,06,40,14.40
2018,08,23,06,41,14.40
2018,08,23,06,42,14.40
2018,08,23,06,43,14.40
2018,08,23,06,44,14.40
2018,08,23,06,45,14.30
2018,08,23,06,46,14.30
2018,08,23,06,47,14.30
2018,08,23,06,48,14.30
2018,08,23,06,49,14.30
2018,08,23,06,50,14.30
2018,08,23,06,51,14.20
2018,08,23,06,52,14.20
2018,08,23,06,53,14.20
2018,08,23,06,54,14.20
2018,08,23,06,55,14.20
2018,08,23,06,56,14.20
2018,08,23,06,57,14.20
2018,08,23,06,58,14.20
2018,08,23,06,59,14.20
2018,08,23,07,00,14.20
2018,08,23,07,01,14.20
2018,08,23,07,02,14.20
2018,08,23,07,03,14.20
2018,08,23,07,04,14.20
2018,08,23,07,05,14.20
2018,08,23,07,06,14.20
2018,08,23,07,07,14.20
2018,08,23,07,08,14.20
2018,08,23,07,09,14.30
2018,08,23,07,10,14.30
2018,08,23,07,11,14.30
2018,08,23,07,12,14.40
2018,08,23,07,13,14.40
2018,08,23,07,14,14.40
2018,08,23,07,15,14.50
2018,08,23,07,16,14.50
2018,08,23,07,17,14.60
2018,08,23,07,18,14.60
2018,08,23,07,19,14.60
2018,08,23,07,20,14.60
2018,08,23,07,21,14.70
2018,08,23,07,22,14.70
2018,08,23,07,23,14.70
2018,08,23,07,24,14.70
2018,08,23,07,25,14.70
2018,08,23,07,26,14.80
2018,08,23,07,27,14.80
2018,08,23,07,28,14.80
2018,08,23,07,29,14.80
2018,08,23,07,30,14.90
2018,08,23,07,31,14.90
2018,08,23,07,32,15.00
2018,08,23,07,33,15.00
2018,08,23,07,34,15.10
2018,08,23,07,35,15.10
2018,08,23,07,36,15.20
2018,08,23,07,37,15.20
2018,08,23,07,38,15.30
2018,08,23,07,39,15.30
2018,08,23,07,40,15.40
2018,08,23,07,41,15.40
2018,08,23,07,42,15.50
2018,08,23,07,43,15.60
2018,08,23,07,44,15.60
2018,08,23,07,45,15.70
2018,08,23,07,46,15.80
2018,08,23,07,47,15.80
2018,08,23,07,48,15.80
2018,08,23,07,49,15.90
2018,08,23,07,50,15.90
2018,08,23,07,51,16.00
2018,08,23,07,52,16.00
2018,08,23,07,53,16.10
2018,08,23,07,54,16.10
2018,08,23,07,55,16.10
2018,08,23,07,56,16.20
2018,08,23,07,57,16.20
2018,08,23,07,58,16.20
2018,08,23,07,59,16.30
2018,08,23,08,00,16.30
2018,08,23,08,01,16.30
2018,08,23,08,02,16.40
2018,08,23,08,03,16.40
2018,08,23,08,04,16.40
2018,08,23,08,05,16.50
2018,08,23,08,06,16.60
2018,08,23,08,07,16.60
2018,08,23,08,08,16.60
2018,08,23,08,09,16.70
2018,08,23,08,10,16.70
2018,08,23,08,11,16.70
2018,08,23,08,12,16.80
2018,08,23,08,13,16.80
2018,08,23,08,14,16.80
2018,08,23,08,15,16.90
2018,08,23,08,16,16.90
2018,08,23,08,17,16.90
2018,08,23,08,18,16.90
2018,08,23,08,19,16.90
2018,08,23,08,20,16.90
2018,08,23,08,21,17.00
2018,08,23,08,22,17.10
2018,08,23,08,23,17.10
2018,08,23,08,24,17.20
2018,08,23,08,25,17.20
2018,08,23,08,26,17.30
2018,08,23,08,27,17.30
2018,08,23,08,28,17.30
2018,08,23,08,29,17.40
2018,08,23,08,30,17.40
2018,08,23,08,31,17.50
2018,08,23,08,32,17.50
2018,08,23,08,33,17.60
2018,08,23,08,34,17.60
2018,08,23,08,35,17.70
2018,08,23,08,36,17.70
2018,08,23,08,37,17.70
2018,08,23,08,38,17.70
2018,08,23,08,39,17.70
2018,08,23,08,40,17.70
2018,08,23,08,41,17.70
2018,08,23,08,42,17.80
2018,08,23,08,43,17.80
2018,08,23,08,44,17.80
2018,08,23,08,45,17.80
2018,08,23,08,46,17.80
2018,08,23,08,47,17.80
2018,08,23,08,48,17.90
2018,08,23,08,49,17.90
2018,08,23,08,50,17.90
2018,08,23,08,51,18.00
2018,08,23,08,52,18.00
2018,08,23,08,53,18.10
2018,08,23,08,54,18.10
2018,08,23,08,55,18.10
2018,08,23,08,56,18.10
2018,08,23,08,57,18.20
2018,08,23,08,58,18.20
2018,08,23,08,59,18.20
2018,08,23,09,00,18.20
2018,08,23,09,01,18.20
2018,08,23,09,02,18.20
2018,08,23,09,03,18.30
2018,08,23,09,04,18.30
2018,08,23,09,05,18.40
2018,08,23,09,06,18.50
2018,08,23,09,07,18.50
2018,08,23,09,08,18.60
2018,08,23,09,09,18.70
2018,08,23,09,10,18.80
2018,08,23,09,11,18.80
2018,08,23,09,12,18.90
2018,08,23,09,13,19.00
2018,08,23,09,14,19.10
2018,08,23,09,15,19.10
2018,08,23,09,16,19.10
2018,08,23,09,17,19.20
2018,08,23,09,18,19.30
2018,08,23,09,19,19.30
2018,08,23,09,20,19.30
2018,08,23,09,21,19.20
2018,08,23,09,22,19.20
2018,08,23,09,23,19.20
2018,08,23,09,24,19.20
2018,08,23,09,25,19.10
2018,08,23,09,26,19.10
2018,08,23,09,27,19.10
2018,08,23,09,28,19.10
2018,08,23,09,29,19.00
2018,08,23,09,30,19.00
2018,08,23,09,31,19.00
2018,08,23,09,32,19.00
2018,08,23,09,33,19.00
2018,08,23,09,34,19.10
2018,08,23,09,35,19.10
2018,08,23,09,36,19.10
2018,08,23,09,37,19.10
2018,08,23,09,38,19.20
2018,08,23,09,39,19.20
2018,08,23,09,40,19.30
2018,08,23,09,41,19.40
2018,08,23,09,42,19.50
2018,08,23,09,43,19.60
2018,08,23,09,44,19.70
2018,08,23,09,45,19.70
2018,08,23,09,46,19.80
2018,08,23,09,47,19.80
2018,08,23,09,48,19.70
2018,08,23,09,49,19.70
2018,08,23,09,50,19.70
2018,08,23,09,51,19.70
2018,08,23,09,52,19.70
2018,08,23,09,53,19.80
2018,08,23,09,54,19.80
2018,08,23,09,55,19.80
2018,08,23,09,56,19.90
2018,08,23,09,57,20.00
2018,08,23,09,58,20.00
2018,08,23,09,59,20.10
2018,08,23,10,00,20.10
2018,08,23,10,01,20.20
2018,08,23,10,02,20.20
2018,08,23,10,03,20.20
2018,08,23,10,04,20.20
2018,08,23,10,05,20.20
2018,08,23,10,06,20.30
2018,08,23,10,07,20.30
2018,08,23,10,08,20.30
2018,08,23,10,09,20.30
2018,08,23,10,10,20.30
2018,08,23,10,11,20.30
2018,08,23,10,12,20.40
2018,08,23,10,13,20.40
2018,08,23,10,14,20.50
2018,08,23,10,15,20.50
2018,08,23,10,16,20.60
2018,08,23,10,17,20.60
2018,08,23,10,18,20.60
2018,08,23,10,19,20.50
2018,08,23,10,20,20.40
2018,08,23,10,21,20.30
2018,08,23,10,22,20.30
2018,08,23,10,23,20.30
2018,08,23,10,24,20.40
2018,08,23,10,25,20.40
2018,08,23,10,26,20.40
2018,08,23,10,27,20.30
2018,08,23,10,28,20.30
2018,08,23,10,29,20.20
2018,08,23,10,30,20.20
2018,08,23,10,31,20.20
2018,08,23,10,32,20.20
2018,08,23,10,33,20.30
2018,08,23,10,34,20.40
2018,08,23,10,35,20.60
2018,08,23,10,36,20.70
2018,08,23,10,37,20.80
2018,08,23,10,38,20.80
2018,08,23,10,39,20.90
2018,08,23,10,40,21.00
2018,08,23,10,41,20.90
2018,08,23,10,42,20.90
2018,08,23,10,43,20.90
2018,08,23,10,44,21.00
2018,08,23,10,45,21.00
2018,08,23,10,46,21.00
2018,08,23,10,47,21.00
2018,08,23,10,48,21.00
2018,08,23,10,49,21.00
2018,08,23,10,50,21.10
2018,08,23,10,51,21.00
2018,08,23,10,52,20.90
2018,08,23,10,53,20.90
2018,08,23,10,54,20.80
2018,08,23,10,55,20.70
2018,08,23,10,56,20.60
2018,08,23,10,57,20.60
2018,08,23,10,58,20.60
2018,08,23,10,59,20.60
2018,08,23,11,00,20.60
2018,08,23,11,01,20.60
2018,08,23,11,02,20.60
2018,08,23,11,03,20.70
2018,08,23,11,04,20.70
2018,08,23,11,05,20.80
2018,08,23,11,06,20.80
2018,08,23,11,07,20.80
2018,08,23,11,08,20.70
2018,08,23,11,09,20.70
2018,08,23,11,10,20.60
2018,08,23,11,11,20.60
2018,08,23,11,12,20.70
2018,08,23,11,13,20.80
2018,08,23,11,14,20.90
2018,08,23,11,15,20.90
2018,08,23,11,16,21.00
2018,08,23,11,17,21.00
2018,08,23,11,18,20.90
2018,08,23,11,19,20.90
2018,08,23,11,20,20.80
2018,08,23,11,21,20.80
2018,08,23,11,22,20.80
2018,08,23,11,23,20.80
2018,08,23,11,24,20.80
2018,08,23,11,25,20.70
2018,08,23,11,26,20.70
2018,08,23,11,27,20.60
2018,08,23,11,28,20.60
2018,08,23,11,29,20.70
2018,08,23,11,30,20.80
2018,08,23,11,31,20.80
2018,08,23,11,32,20.80
2018,08,23,11,33,20.80
2018,08,23,11,34,20.80
2018,08,23,11,35,20.80
2018,08,23,11,36,20.90
2018,08,23,11,37,20.90
2018,08,23,11,38,20.80
2018,08,23,11,39,20.70
2018,08,23,11,40,20.70
2018,08,23,11,41,20.70
2018,08,23,11,42,20.70
2018,08,23,11,43,20.60
2018,08,23,11,44,20.60
2018,08,23,11,45,20.50
2018,08,23,11,46,20.50
2018,08,23,11,47,20.50
2018,08,23,11,48,20.60
2018,08,23,11,49,20.60
2018,08,23,11,50,20.70
2018,08,23,11,51,20.80
2018,08,23,11,52,20.90
2018,08,23,11,53,20.90
2018,08,23,11,54,20.90
2018,08,23,11,55,20.90
2018,08,23,11,56,20.70
2018,08,23,11,57,20.60
2018,08,23,11,58,20.50
2018,08,23,11,59,20.40
2018,08,23,12,00,20.30
2018,08,23,12,01,20.30
2018,08,23,12,02,20.20
2018,08,23,12,03,20.20
2018,08,23,12,04,20.20
2018,08,23,12,05,20.20
2018,08,23,12,06,20.20
2018,08,23,12,07,20.30
2018,08,23,12,08,20.30
2018,08,23,12,09,20.30
2018,08,23,12,10,20.30
2018,08,23,12,11,20.30
2018,08,23,12,12,20.40
2018,08,23,12,13,20.40
2018,08,23,12,14,20.50
2018,08,23,12,15,20.60
2018,08,23,12,16,20.60
2018,08,23,12,17,20.60
2018,08,23,12,18,20.50
2018,08,23,12,19,20.50
2018,08,23,12,20,20.40
2018,08,23,12,21,20.30
2018,08,23,12,22,20.30
2018,08,23,12,23,20.30
2018,08,23,12,24,20.20
2018,08,23,12,25,20.30
2018,08,23,12,26,20.30
2018,08,23,12,27,20.40
2018,08,23,12,28,20.40
2018,08,23,12,29,20.50
2018,08,23,12,30,20.50
2018,08,23,12,31,20.60
2018,08,23,12,32,20.60
2018,08,23,12,33,20.70
2018,08,23,12,34,20.80
2018,08,23,12,35,20.90
2018,08,23,12,36,20.90
2018,08,23,12,37,20.90
2018,08,23,12,38,20.90
2018,08,23,12,39,20.80
2018,08,23,12,40,20.80
2018,08,23,12,41,20.80
2018,08,23,12,42,20.80
2018,08,23,12,43,20.80
2018,08,23,12,44,20.70
2018,08,23,12,45,20.60
2018,08,23,12,46,20.40
2018,08,23,12,47,20.30
2018,08,23,12,48,20.30
2018,08,23,12,49,20.30
2018,08,23,12,50,20.30
2018,08,23,12,51,20.40
2018,08,23,12,52,20.40
2018,08,23,12,53,20.40
2018,08,23,12,54,20.40
2018,08,23,12,55,20.50
2018,08,23,12,56,20.50
2018,08,23,12,57,20.50
2018,08,23,12,58,20.40
2018,08,23,12,59,20.40
2018,08,23,13,00,20.40
2018,08,23,13,01,20.40
2018,08,23,13,02,20.40
2018,08,23,13,03,20.30
2018,08,23,13,04,20.40
2018,08,23,13,05,20.60
2018,08,23,13,06,20.70
2018,08,23,13,07,20.70
2018,08,23,13,08,20.70
2018,08,23,13,09,20.70
2018,08,23,13,10,20.70
2018,08,23,13,11,20.70
2018,08,23,13,12,20.70
2018,08,23,13,13,20.70
2018,08,23,13,14,20.60
2018,08,23,13,15,20.50
2018,08,23,13,16,20.40
2018,08,23,13,17,20.20
2018,08,23,13,18,20.10
2018,08,23,13,19,20.10
2018,08,23,13,20,20.10
2018,08,23,13,21,20.00
2018,08,23,13,22,19.90
2018,08,23,13,23,19.80
2018,08,23,13,24,19.60
2018,08,23,13,25,19.60
2018,08,23,13,26,19.50
2018,08,23,13,27,19.40
2018,08,23,13,28,19.30
2018,08,23,13,29,19.30
2018,08,23,13,30,19.20
2018,08,23,13,31,19.30
2018,08,23,13,32,19.40
2018,08,23,13,33,19.50
2018,08,23,13,34,19.70
2018,08,23,13,35,19.80
2018,08,23,13,36,19.80
2018,08,23,13,37,19.90
2018,08,23,13,38,20.00
2018,08,23,13,39,20.00
2018,08,23,13,40,20.10
2018,08,23,13,41,20.20
2018,08,23,13,42,20.30
2018,08,23,13,43,20.40
2018,08,23,13,44,20.40
2018,08,23,13,45,20.40
2018,08,23,13,46,20.40
2018,08,23,13,47,20.30
2018,08,23,13,48,20.20
2018,08,23,13,49,20.20
2018,08,23,13,50,20.10
2018,08,23,13,51,20.00
2018,08,23,13,52,19.90
2018,08,23,13,53,19.90
2018,08,23,13,54,20.00
2018,08,23,13,55,20.20
2018,08,23,13,56,20.40
2018,08,23,13,57,20.50
2018,08,23,13,58,20.60
2018,08,23,13,59,20.70
2018,08,23,14,00,20.70
2018,08,23,14,01,20.70
2018,08,23,14,02,20.70
2018,08,23,14,03,20.80
2018,08,23,14,04,20.90
2018,08,23,14,05,21.00
2018,08,23,14,06,21.10
2018,08,23,14,07,21.30
2018,08,23,14,08,21.30
2018,08,23,14,09,21.40
2018,08,23,14,10,21.50
2018,08,23,14,11,21.50
2018,08,23,14,12,21.60
2018,08,23,14,13,21.60
2018,08,23,14,14,21.70
2018,08,23,14,15,21.60
2018,08,23,14,16,21.40
2018,08,23,14,17,21.20
2018,08,23,14,18,21.10
2018,08,23,14,19,21.10
2018,08,23,14,20,21.10
2018,08,23,14,21,21.10
2018,08,23,14,22,21.20
2018,08,23,14,23,21.30
2018,08,23,14,24,21.30
2018,08,23,14,25,21.30
2018,08,23,14,26,21.30
2018,08,23,14,27,21.20
2018,08,23,14,28,21.20
2018,08,23,14,29,21.10
2018,08,23,14,30,21.00
2018,08,23,14,31,20.90
2018,08,23,14,32,20.80
2018,08,23,14,33,20.80
2018,08,23,14,34,20.70
2018,08,23,14,35,20.60
2018,08,23,14,36,20.60
2018,08,23,14,37,20.70
2018,08,23,14,38,20.80
2018,08,23,14,39,20.90
2018,08,23,14,40,20.90
2018,08,23,14,41,21.10
2018,08,23,14,42,21.10
2018,08,23,14,43,21.00
2018,08,23,14,44,20.90
2018,08,23,14,45,20.90
2018,08,23,14,46,20.90
2018,08,23,14,47,20.80
2018,08,23,14,48,20.90
2018,08,23,14,49,20.90
2018,08,23,14,50,20.90
2018,08,23,14,51,20.90
2018,08,23,14,52,21.00
2018,08,23,14,53,21.00
2018,08,23,14,54,21.00
2018,08,23,14,55,21.10
2018,08,23,14,56,21.10
2018,08,23,14,57,21.10
2018,08,23,14,58,21.20
2018,08,23,14,59,21.20
2018,08,23,15,00,21.20
2018,08,23,15,01,21.20
2018,08,23,15,02,21.20
2018,08,23,15,03,21.20
2018,08,23,15,04,21.00
2018,08,23,15,05,20.90
2018,08,23,15,06,20.80
2018,08,23,15,07,20.90
2018,08,23,15,08,20.90
2018,08,23,15,09,20.80
2018,08,23,15,10,20.80
2018,08,23,15,11,20.80
2018,08,23,15,12,20.80
2018,08,23,15,13,20.90
2018,08,23,15,14,20.90
2018,08,23,15,15,20.90
2018,08,23,15,16,21.00
2018,08,23,15,17,21.00
2018,08,23,15,18,21.10
2018,08,23,15,19,21.10
2018,08,23,15,20,21.10
2018,08,23,15,21,21.10
2018,08,23,15,22,21.20
2018,08,23,15,23,21.20
2018,08,23,15,24,21.30
2018,08,23,15,25,21.30
2018,08,23,15,26,21.30
2018,08,23,15,27,21.30
2018,08,23,15,28,21.30
2018,08,23,15,29,21.30
2018,08,23,15,30,21.30
2018,08,23,15,31,21.30
2018,08,23,15,32,21.30
2018,08,23,15,33,21.30
2018,08,23,15,34,21.30
2018,08,23,15,35,21.20
2018,08,23,15,36,21.10
2018,08,23,15,37,21.00
2018,08,23,15,38,21.00
2018,08,23,15,39,21.00
2018,08,23,15,40,21.00
2018,08,23,15,41,20.90
2018,08,23,15,42,20.90
2018,08,23,15,43,20.90
2018,08,23,15,44,20.80
2018,08,23,15,45,20.80
2018,08,23,15,46,20.80
2018,08,23,15,47,20.80
2018,08,23,15,48,20.80
2018,08,23,15,49,20.80
2018,08,23,15,50,20.80
2018,08,23,15,51,20.80
2018,08,23,15,52,20.80
2018,08,23,15,53,20.80
2018,08,23,15,54,20.90
2018,08,23,15,55,20.90
2018,08,23,15,56,20.90
2018,08,23,15,57,20.90
2018,08,23,15,58,20.90
2018,08,23,15,59,20.90
2018,08,23,16,00,20.90
2018,08,23,16,01,20.90
2018,08,23,16,02,20.90
2018,08,23,16,03,20.80
2018,08,23,16,04,20.80
2018,08,23,16,05,20.80
2018,08,23,16,06,20.80
2018,08,23,16,07,20.80
2018,08,23,16,08,20.80
2018,08,23,16,09,20.80
2018,08,23,16,10,20.90
2018,08,23,16,11,21.00
2018,08,23,16,12,21.10
2018,08,23,16,13,21.20
2018,08,23,16,14,21.30
2018,08,23,16,15,21.40
2018,08,23,16,16,21.50
2018,08,23,16,17,21.60
2018,08,23,16,18,21.60
2018,08,23,16,19,21.60
2018,08,23,16,20,21.60
2018,08,23,16,21,21.50
2018,08,23,16,22,21.50
2018,08,23,16,23,21.40
2018,08,23,16,24,21.40
2018,08,23,16,25,21.30
2018,08,23,16,26,21.30
2018,08,23,16,27,21.40
2018,08,23,16,28,21.40
2018,08,23,16,29,21.40
2018,08,23,16,30,21.40
2018,08,23,16,31,21.50
2018,08,23,16,32,21.50
2018,08,23,16,33,21.60
2018,08,23,16,34,21.70
2018,08,23,16,35,21.80
2018,08,23,16,36,21.80
2018,08,23,16,37,21.80
2018,08,23,16,38,21.90
2018,08,23,16,39,21.90
2018,08,23,16,40,21.80
2018,08,23,16,41,21.80
2018,08,23,16,42,21.80
2018,08,23,16,43,21.70
2018,08,23,16,44,21.60
2018,08,23,16,45,21.50
2018,08,23,16,46,21.40
2018,08,23,16,47,21.40
2018,08,23,16,48,21.30
2018,08,23,16,49,21.20
2018,08,23,16,50,21.20
2018,08,23,16,51,21.20
2018,08,23,16,52,21.20
2018,08,23,16,53,21.30
2018,08,23,16,54,21.40
2018,08,23,16,55,21.40
2018,08,23,16,56,21.40
2018,08,23,16,57,21.40
2018,08,23,16,58,21.50
2018,08,23,16,59,21.50
2018,08,23,17,00,21.50
2018,08,23,17,01,21.40
2018,08,23,17,02,21.40
2018,08,23,17,03,21.40
2018,08,23,17,04,21.50
2018,08,23,17,05,21.60
2018,08,23,17,06,21.60
2018,08,23,17,07,21.60
2018,08,23,17,08,21.70
2018,08,23,17,09,21.60
2018,08,23,17,10,21.60
2018,08,23,17,11,21.70
2018,08,23,17,12,21.70
2018,08,23,17,13,21.80
2018,08,23,17,14,21.80
2018,08,23,17,15,21.80
2018,08,23,17,16,21.80
2018,08,23,17,17,21.80
2018,08,23,17,18,21.70
2018,08,23,17,19,21.70